Regional Weather Roundup
Issued by NWS Tiyan, Guam

Home | Current Version | Previous Version | Text Only | Print | Product List | Glossary On
Versions: 1 2 3 4 5 6 7 8 9 10 11 12 13 14 15 16 17 18 19 20 21 22 23 24 25 26 27 28 29 30 31 32 33 34 35 36 37 38 39 40 41 42 43 44 45 46 47 48 49 50
000
ASGM40 PGUM 290612
RWRGUM
WEATHER ROUNDUP FOR THE MARIANAS
NATIONAL WEATHER SERVICE TIYAN GU
400 PM CHST TUE JUL 29 2014

GUZ001>004-290700-
MARIANA ISLANDS-

CITY           SKY/WX    TMP DP  RH WIND       PRES   REMARKS
GUAM AIRPORT   PTSUNNY   81  75  83 W20G28    29.79F
ANDERSEN AFB   DRIZZLE   79  75  89 W22       29.78
ROTA AIRPORT   CLOUDY    79  77  94 NW21      29.76F
TINIAN AP      LGT RAIN  79  79 100 NW9       29.73F
SAIPAN AP      LGT RAIN  81  79  94 N12       29.75S

$$



USA.gov is the U.S. government's official web portal to all federal, state and local government web resources and services.